Wind_Speed
6 6 6 6 6 7 7 8 8 8 8 9 9 9 8 7 6 5 5 5 5 5 6 6 6 6 7 8 9 9 9 11 11 12 15 12 10 10 9 7 5 4 3 2 2 2 2 3 3 4 5 7 7 7 9 7 6 4 2 3 4 5 5 1 2 3 2 2 2 6 7 4 3 6 9 8 11 14 12 12 13 13 15 17 18 16 17 17
7 7 7 7 7 7 7 8 8 8 8 8 9 9 9 8 8 7 6 5 5 6 5 6 6 6 6 7 9 9 10 11 13 16 17 14 12 11 10 9 7 6 4 2 2 1 2 5 4 6 8 8 8 8 8 6 6 6 3 3 5 5 4 2 4 4 3 4 4 2 6 6 5 5 8 5 7 14 12 13 15 15 16 20 22 21 23 22
8 8 8 8 8 8 8 8 8 8 8 8 8 8 9 9 9 8 7 7 6 6 6 6 7 7 7 6 7 9 11 12 16 20 18 15 14 13 12 11 9 8 5 4 3 2 5 7 5 7 10 10 10 10 8 6 6 8 5 3 6 3 5 7 6 4 3 5 6 7 4 6 8 6 7 5 7 10 11 13 15 18 23 24 25 25 26 26
9 8 8 8 8 8 8 9 9 9 9 9 9 9 9 9 9 9 8 8 7 7 7 7 7 7 7 7 7 7 9 10 14 18 15 14 15 14 14 13 11 9 7 5 4 3 4 5 5 7 10 10 13 11 7 9 7 6 6 4 7 4 4 6 5 2 2 2 4 9 7 5 9 9 8 7 6 7 12 18 19 24 27 26 28 28 28 28
9 9 9 8 9 9 9 9 9 10 10 10 10 10 10 9 10 10 9 9 9 8 8 8 8 8 8 7 7 6 6 5 4 6 7 7 11 14 15 14 12 11 9 7 5 4 4 4 5 7 8 9 11 9 8 14 11 4 7 10 14 11 5 3 3 2 4 4 6 8 7 8 9 10 13 12 8 9 12 15 18 23 26 25 27 27 28 29
10 10 9 9 9 9 9 9 10 10 10 11 11 11 11 10 10 11 11 10 10 10 9 9 9 8 8 7 7 6 5 3 3 4 7 7 7 12 14 14 13 11 10 8 7 5 4 4 6 8 8 7 8 9 10 15 13 4 8 13 18 17 9 6 5 5 7 6 7 7 8 10 8 10 14 17 20 22 17 12 13 15 18 20 24 26 28 28
11 11 10 10 9 9 9 9 10 10 10 11 11 11 11 11 11 11 12 12 11 11 11 11 11 11 9 7 8 7 10 12 13 14 14 13 10 10 13 14 12 12 11 10 8 5 5 6 9 11 8 7 7 9 8 8 10 6 6 11 17 16 11 11 9 9 10 9 11 10 8 9 10 9 12 21 28 29 25 20 19 18 16 17 20 24 26 27
14 13 12 12 11 11 11 11 11 10 10 11 11 12 12 12 12 12 12 13 13 13 13 13 13 13 11 8 8 8 13 17 18 17 16 15 12 11 12 14 13 12 12 11 9 6 7 9 12 12 7 5 5 6 3 3 7 8 8 12 13 11 10 12 12 13 13 13 13 11 11 13 16 12 14 27 31 27 24 22 23 24 22 21 22 24 26 27
16 15 15 14 14 14 13 13 12 12 12 11 11 12 12 13 14 14 14 14 14 14 15 15 15 15 12 9 7 7 11 14 14 14 13 13 13 13 14 15 14 14 12 11 10 9 8 8 9 7 4 7 9 9 6 3 4 5 7 11 10 11 13 14 15 16 14 14 12 10 12 17 20 13 16 33 35 28 27 24 24 24 24 24 25 27 28 29
17 17 17 16 16 16 16 16 15 15 14 13 13 13 13 14 15 15 16 16 16 16 16 16 16 15 12 9 4 5 9 10 10 12 12 12 13 13 15 17 16 15 13 12 11 10 10 9 9 8 7 9 10 10 7 4 5 6 9 11 13 16 20 19 19 19 16 15 15 12 10 15 16 8 12 28 25 20 24 26 27 25 26 27 26 27 30 31
19 19 19 18 18 18 18 18 18 17 17 16 15 15 15 15 15 16 16 17 18 18 17 17 17 15 13 9 7 8 13 13 13 14 15 15 14 13 14 15 16 16 15 12 12 12 12 12 12 10 7 5 5 8 9 8 9 9 9 11 14 18 22 23 20 21 17 11 17 16 8 12 10 6 17 31 20 12 17 21 25 27 28 29 27 27 29 31
20 20 20 20 20 19 19 19 19 19 19 19 18 17 17 17 17 17 17 18 18 19 18 18 17 15 12 11 15 17 19 18 18 18 18 17 16 15 14 14 14 15 15 14 13 13 13 13 12 10 7 5 5 7 6 6 8 8 6 7 12 13 16 20 20 21 16 7 13 13 4 10 9 13 29 38 27 18 16 17 21 25 28 29 29 28 29 31
23 23 23 23 22 22 21 21 21 21 21 21 21 20 19 20 19 19 19 19 19 19 19 19 18 15 10 12 20 21 19 19 19 19 19 19 18 16 15 14 13 14 15 15 14 14 14 13 12 11 11 9 6 7 7 8 7 7 6 5 9 9 9 17 20 19 15 7 14 12 2 8 9 21 33 32 26 23 20 21 22 23 26 29 30 30 31 32
26 26 26 26 26 25 25 24 24 24 24 23 23 22 22 22 22 21 20 20 20 20 20 19 18 14 9 15 23 22 20 21 20 21 21 20 18 17 16 15 14 14 14 16 16 16 14 12 11 11 12 12 10 9 9 8 5 4 5 5 5 4 6 10 9 13 11 7 17 12 4 8 8 17 25 24 23 23 23 24 24 24 26 29 30 31 33 34
27 28 28 28 28 28 28 28 28 27 27 26 26 25 24 24 24 24 22 22 22 21 22 20 17 12 10 17 24 20 19 20 20 22 21 20 19 16 14 15 15 14 14 15 15 14 13 11 10 8 8 11 11 7 5 5 5 3 3 4 5 4 7 6 3 14 11 6 15 11 4 9 10 14 14 19 23 22 23 24 23 26 27 29 31 33 34 35
25 26 27 27 28 28 29 30 30 30 30 30 29 28 27 27 27 26 26 25 23 23 22 18 16 11 8 14 20 19 19 19 20 21 19 18 16 14 14 14 12 13 13 13 12 12 11 9 9 9 7 5 5 4 3 4 5 4 5 6 6 6 8 5 3 11 10 6 11 12 5 7 7 7 5 11 21 22 21 21 22 24 26 28 31 33 35 35
22 23 24 24 25 26 27 28 28 29 30 30 30 30 29 28 28 28 27 26 24 23 20 14 11 9 9 15 19 20 22 20 18 19 17 15 14 14 14 11 9 10 10 10 11 11 10 9 6 6 8 6 4 4 3 5 6 4 5 6 7 8 8 5 2 6 8 6 7 11 9 12 9 6 6 9 17 21 21 20 21 24 25 29 31 32 34 34
22 23 23 23 23 24 25 25 26 27 28 28 28 28 28 28 28 27 26 25 20 15 13 11 8 4 9 16 17 18 19 16 14 14 13 12 12 12 12 9 7 7 7 7 9 10 9 9 6 3 4 5 5 5 5 7 7 5 6 5 6 7 7 8 4 3 9 6 7 8 10 16 14 10 15 18 18 21 22 21 24 28 29 32 34 33 32 33
22 22 23 23 23 24 24 25 25 26 27 26 26 26 27 26 24 24 22 20 14 7 7 10 13 6 6 9 11 13 14 13 12 12 12 11 11 12 13 11 8 8 7 4 6 11 11 6 5 4 5 8 8 9 10 11 11 10 10 8 7 7 7 12 9 4 10 7 7 11 12 15 15 12 15 24 26 24 24 24 26 30 31 34 36 34 32 33
21 22 22 22 23 24 24 25 24 25 26 26 26 24 21 16 13 11 10 15 18 16 16 15 17 16 13 10 11 12 13 15 15 15 15 12 11 12 14 12 8 9 8 4 5 10 12 6 4 8 11 12 10 12 14 14 13 12 11 9 9 8 9 13 10 4 9 6 8 13 13 13 16 13 12 21 25 21 21 21 23 28 30 35 36 34 33 35
19 20 20 21 22 22 23 24 24 24 24 24 24 19 11 9 7 6 7 14 22 24 25 22 19 20 20 17 17 17 16 15 16 19 17 12 12 10 12 13 7 6 9 9 6 5 8 6 9 15 17 12 9 11 12 12 13 12 9 8 8 7 10 13 9 4 8 5 7 10 11 13 15 14 13 18 18 16 20 19 22 29 31 36 36 33 35 34
17 17 18 19 19 20 21 22 22 22 22 21 20 15 11 13 12 13 12 13 22 26 24 24 23 25 26 23 22 23 19 14 16 22 20 16 16 12 12 13 8 6 7 9 7 3 5 9 13 17 14 10 11 11 9 10 10 9 6 5 7 8 10 11 6 3 4 3 5 8 9 11 13 14 14 16 15 19 27 26 29 34 32 35 35 33 32 27
16 16 17 17 17 18 18 18 19 19 18 17 17 15 14 14 13 16 13 9 18 25 26 27 27 28 30 28 28 28 23 19 19 23 26 22 20 18 14 11 9 8 6 9 9 7 7 9 14 18 15 12 14 11 7 8 8 7 6 5 8 10 8 7 4 3 4 4 6 7 8 8 11 15 15 20 25 27 32 33 36 40 36 38 39 34 28 22
17 17 17 17 17 16 16 17 15 13 14 13 12 11 11 11 12 13 12 8 11 16 25 29 27 30 32 29 29 29 28 27 22 21 27 26 21 17 14 12 9 8 8 11 14 14 12 8 9 11 12 12 13 10 7 6 8 7 7 7 11 12 11 10 6 3 4 6 4 4 9 8 10 15 14 16 22 23 27 28 30 38 40 40 40 34 28 24
18 18 18 19 18 17 17 16 12 11 12 11 10 9 8 8 8 8 8 7 7 8 15 20 21 26 30 29 30 26 21 23 24 23 25 27 24 13 8 12 10 7 11 13 13 14 13 11 11 9 6 8 8 8 7 6 8 8 7 12 16 15 13 12 10 5 3 5 2 0 7 7 8 13 13 9 9 12 16 17 20 31 36 36 38 35 29 25
18 19 19 20 19 18 17 12 11 14 12 10 10 8 7 5 4 6 6 4 6 3 6 10 11 13 17 22 27 20 8 11 19 24 21 22 26 16 5 8 9 9 10 9 9 8 6 8 9 9 8 8 6 6 7 7 8 8 4 8 12 12 11 11 9 5 3 4 2 3 2 8 7 8 9 6 7 9 10 10 15 25 29 31 34 36 30 23
18 19 19 20 20 18 16 12 13 14 10 9 10 6 5 4 3 4 4 4 6 4 7 7 7 7 8 12 20 17 2 2 8 16 19 20 24 20 9 7 7 8 5 1 6 4 4 5 4 5 7 6 6 8 8 9 7 7 1 1 3 4 6 6 5 5 4 3 3 4 4 9 13 7 9 9 8 9 9 9 12 19 26 29 31 35 31 24
19 19 20 20 20 18 17 16 15 13 11 10 8 5 4 4 3 1 1 5 3 7 6 6 6 6 6 10 20 15 1 2 5 8 19 22 21 16 11 11 8 7 6 4 7 3 2 7 7 8 7 5 8 7 6 9 7 4 0 2 2 2 2 1 2 5 3 4 4 5 7 6 14 5 9 11 10 10 11 11 12 16 24 27 28 32 31 27
21 20 20 21 22 20 18 18 14 12 13 11 6 5 4 6 3 2 2 5 1 4 3 6 6 4 6 8 14 13 3 2 2 4 13 17 19 12 5 7 8 8 6 8 10 5 0 4 4 6 7 7 7 2 1 5 6 4 2 3 5 2 1 2 2 2 3 5 7 7 8 6 14 6 8 8 10 11 11 11 12 16 23 26 25 27 26 27
22 22 22 22 23 21 19 19 15 12 13 10 6 4 5 5 2 1 6 5 1 2 4 5 4 6 9 6 6 12 7 1 2 5 7 8 14 11 2 2 4 6 6 6 9 8 2 4 3 2 5 4 4 4 3 1 2 3 3 2 3 1 1 1 3 2 1 10 8 10 14 9 10 5 8 8 10 12 10 9 12 14 19 24 22 21 23 26
24 23 23 24 24 22 20 19 17 14 12 9 5 7 6 2 1 4 8 2 2 2 5 4 4 8 11 8 5 8 7 4 4 7 5 3 7 8 3 1 1 1 4 5 8 9 4 2 1 2 3 5 6 3 2 3 1 2 3 2 1 3 2 3 2 4 2 11 4 12 17 14 11 5 5 7 10 13 11 10 13 11 14 22 24 22 24 26
26 25 25 27 26 25 22 21 19 15 12 8 7 8 4 1 4 9 6 3 1 4 5 4 6 7 9 9 5 6 6 5 7 8 5 4 5 6 6 6 5 2 3 5 5 5 6 8 6 1 2 8 6 1 2 4 2 2 4 4 1 3 2 1 2 3 5 11 4 11 14 12 15 10 3 5 7 11 11 10 14 13 14 22 24 24 25 26
24 25 27 28 28 28 26 25 23 16 11 7 8 5 1 3 7 9 6 3 1 1 3 4 7 7 7 6 4 5 4 4 8 8 6 6 5 6 8 8 5 3 4 4 3 2 3 6 7 4 2 10 10 5 4 2 4 8 6 6 5 3 3 4 4 3 7 9 5 7 11 7 10 8 10 13 11 11 14 17 18 15 16 21 23 26 27 27
23 24 28 30 29 28 26 27 25 18 13 9 7 2 1 8 8 2 4 6 4 1 1 2 5 8 6 5 4 6 5 4 7 8 5 6 4 4 7 9 10 7 3 2 3 3 4 8 7 8 3 11 15 13 12 4 4 9 6 5 6 5 3 4 5 7 7 6 5 3 6 5 4 3 12 17 15 15 19 26 25 19 19 19 19 24 27 27
26 26 28 31 32 29 26 29 27 21 18 12 7 3 6 9 7 2 3 5 4 3 1 2 2 6 5 5 3 6 7 5 6 7 5 7 6 5 6 7 13 10 3 3 4 3 5 10 7 9 3 11 13 12 11 5 1 6 5 4 6 5 4 5 8 9 5 4 6 4 4 6 4 5 10 12 13 14 17 23 21 19 21 19 18 23 26 26
28 28 28 31 36 32 28 30 28 25 23 15 8 4 10 8 5 3 1 2 3 3 1 1 1 4 5 4 3 6 6 3 4 5 4 6 7 7 6 5 12 14 9 6 3 3 5 7 3 5 2 4 4 4 5 4 1 2 4 5 5 3 5 6 8 7 3 5 9 6 7 7 6 10 13 12 12 12 12 14 14 17 22 20 19 23 24 25
28 28 29 33 35 33 31 32 30 28 24 15 7 7 9 7 8 6 5 5 6 5 0 3 3 4 5 4 4 7 4 1 4 5 3 4 5 8 8 5 11 17 16 12 5 4 7 7 2 4 1 1 2 5 4 3 1 4 3 4 1 3 1 2 2 3 3 8 9 9 12 10 8 9 5 8 13 13 12 13 14 17 19 17 19 24 25 26
26 27 30 35 35 31 30 32 32 29 20 10 7 10 7 6 9 9 9 9 9 8 6 6 5 5 6 6 5 6 7 5 5 5 3 3 4 8 8 7 10 17 21 19 8 4 5 6 4 2 1 2 3 3 3 3 2 5 2 3 2 0 2 2 3 2 5 8 7 10 15 12 11 11 6 3 12 14 14 16 17 16 13 13 19 25 26 26
23 20 23 31 29 23 25 30 31 27 15 5 8 9 6 7 9 11 13 10 7 6 8 8 6 5 7 8 6 3 7 8 6 5 5 4 5 7 10 7 8 14 22 21 10 4 3 5 5 1 1 2 2 1 4 1 1 1 3 4 1 2 3 3 3 3 6 8 8 10 12 13 12 9 7 8 12 14 14 15 14 12 12 17 23 27 28 27
17 11 13 22 18 12 17 25 27 21 8 4 8 8 6 5 7 13 21 17 7 5 6 6 7 7 7 9 9 5 5 7 6 5 5 5 5 5 8 9 7 8 15 16 11 6 2 4 6 1 2 2 2 4 7 7 5 3 2 3 3 2 1 1 3 3 5 7 7 7 10 15 10 1 4 8 11 12 12 11 10 9 14 22 27 29 29 28
13 6 9 18 12 7 16 21 16 10 4 3 6 8 8 6 5 9 17 18 11 8 5 3 6 7 7 8 9 8 5 5 4 5 5 5 7 5 2 6 6 5 5 5 7 6 3 5 7 3 2 6 8 6 10 13 11 8 7 8 8 7 4 4 7 7 6 5 6 7 9 15 8 4 2 4 9 11 10 11 10 10 16 23 25 27 27 27
11 6 9 16 10 10 19 16 7 6 6 5 8 7 6 7 8 10 14 13 9 6 3 2 5 7 7 8 9 8 7 5 4 5 5 5 7 5 4 6 4 1 3 1 4 4 2 2 5 6 6 8 9 5 6 10 8 5 5 7 9 8 8 9 10 8 5 4 6 7 10 16 8 5 5 1 5 8 10 11 9 10 19 23 23 25 25 26
12 9 10 13 12 15 17 7 4 7 4 5 8 8 8 8 6 9 12 12 8 5 4 4 7 10 10 9 9 9 8 7 8 10 10 9 9 8 8 14 13 6 2 3 2 1 3 2 4 7 5 5 6 4 1 1 1 2 5 5 6 7 8 10 9 7 7 6 6 8 11 15 9 2 3 3 5 6 9 11 9 10 18 22 23 25 25 25
13 14 13 13 16 20 15 4 4 8 6 6 6 8 13 11 8 9 9 10 10 5 5 7 8 11 10 8 9 9 7 7 7 9 9 8 8 11 12 13 10 3 2 2 1 1 1 1 2 4 5 4 5 6 4 2 3 1 5 6 8 9 10 10 7 7 10 10 11 13 11 11 10 3 4 5 6 6 8 12 14 14 17 20 23 25 27 28
10 12 13 18 27 30 21 12 10 8 7 11 11 12 13 9 12 20 19 15 15 10 7 6 5 7 7 5 7 9 9 8 6 4 5 5 7 11 15 13 7 3 3 2 4 3 0 1 2 3 6 7 7 8 7 3 0 1 4 7 10 11 12 11 8 8 10 11 14 15 12 11 14 13 12 13 13 12 12 15 16 17 20 23 24 26 28 30
6 5 6 14 29 34 26 22 19 10 7 12 10 11 15 11 12 24 24 17 18 19 14 7 3 3 5 7 8 10 11 11 9 5 4 6 6 7 11 11 8 8 9 4 4 4 2 3 6 9 11 11 11 12 11 8 6 6 8 10 11 11 12 11 8 10 11 11 13 15 15 17 17 18 22 22 20 19 18 18 17 18 21 23 24 26 29 32
6 4 3 4 13 21 19 19 18 11 10 14 6 5 15 17 11 15 19 16 18 21 15 9 8 8 7 10 11 12 13 13 13 11 9 10 9 8 12 12 10 12 12 7 7 6 3 5 11 16 18 17 16 19 18 16 16 16 16 17 15 13 12 12 12 12 11 12 15 14 16 20 17 17 24 26 25 23 19 17 18 21 25 25 24 26 30 33
8 7 9 5 2 6 9 13 16 12 11 15 9 7 15 18 12 12 15 16 18 18 10 8 14 16 15 15 12 10 11 10 11 11 11 12 11 11 13 13 15 19 13 6 7 7 3 7 13 15 19 20 20 21 22 20 20 20 19 20 20 18 15 15 16 16 15 16 17 16 19 23 20 19 23 25 24 22 20 24 28 30 31 29 23 22 27 31
10 11 12 11 5 3 7 9 10 10 10 12 10 10 15 18 18 16 12 10 12 14 13 12 15 18 21 21 16 13 11 11 13 12 11 13 14 10 8 8 14 20 16 8 6 6 4 6 11 15 17 18 19 21 22 21 21 20 20 21 21 22 22 22 22 23 24 23 22 22 25 26 23 21 24 26 27 25 27 34 38 36 36 36 28 22 25 28
10 8 9 11 9 9 14 12 6 5 7 9 8 9 12 17 20 17 13 12 11 10 14 19 20 19 20 20 19 17 16 17 19 18 14 12 10 8 7 8 8 9 9 7 5 6 7 8 10 12 12 13 18 21 21 21 21 22 24 22 21 23 25 26 25 23 23 24 25 25 23 21 21 23 25 27 28 28 28 32 36 38 40 41 34 25 25 28
12 10 10 9 6 7 11 9 6 4 5 5 5 6 9 13 15 14 13 18 19 14 13 18 22 19 17 19 22 23 24 25 26 27 25 20 14 12 9 8 10 7 5 6 5 5 7 6 6 7 8 9 15 20 22 23 23 23 23 22 23 26 25 24 23 22 22 23 24 23 18 17 20 21 20 20 23 24 25 27 32 37 41 40 34 27 26 29
13 15 14 9 4 5 7 6 5 7 6 6 8 9 10 12 13 13 11 12 19 22 20 18 17 14 14 18 20 19 21 24 26 29 31 31 29 27 20 13 12 9 6 6 5 4 6 6 5 7 8 8 12 19 21 18 16 14 16 23 30 31 27 23 21 23 24 21 18 16 16 18 19 17 16 19 22 23 25 27 29 32 37 39 36 33 31 30
Wind_Direction
332 335 336 341 347 351 355 357 0 2 5 6 7 10 11 13 12 6 356 350 354 355 352 347 338 325 304 292 285 282 282 278 278 276 268 259 252 257 260 257 258 258 272 292 304 311 291 294 272 221 223 250 255 232 237 241 220 212 200 223 241 248 251 289 335 356 3 328 115 173 186 216 226 188 217 235 232 232 238 239 234 233 237 240 241 242 241 241
321 324 325 331 335 339 345 348 352 354 357 0 2 5 6 9 9 6 0 349 341 336 337 338 335 329 320 300 284 280 279 280 281 271 264 261 255 255 252 244 241 243 255 256 258 283 260 279 266 218 219 238 243 224 229 230 202 211 232 246 245 261 269 304 338 345 354 326 326 239 194 217 247 201 201 228 231 222 231 240 232 230 233 239 240 239 242 243
315 318 321 324 328 332 337 339 344 346 349 352 355 357 359 1 3 5 2 357 348 337 330 328 328 326 324 310 290 280 280 284 281 272 266 261 254 250 248 240 235 238 243 245 257 244 231 251 249 228 229 239 236 217 218 217 200 221 227 262 252 268 318 319 338 334 324 322 318 301 248 208 242 232 185 212 248 223 224 231 220 221 227 233 238 237 240 242
311 314 316 321 325 327 330 334 337 340 343 344 347 351 352 353 353 358 359 358 353 346 338 330 326 323 322 316 301 285 287 289 277 276 277 264 251 246 243 239 235 237 240 244 256 252 237 238 244 249 243 248 242 217 204 206 201 217 205 229 263 278 322 320 355 352 301 310 290 294 289 236 244 243 207 210 255 241 234 235 225 227 233 231 232 238 242 242
306 308 311 316 318 322 325 329 332 334 337 337 341 343 346 348 347 349 352 355 354 351 347 339 333 327 322 315 306 287 285 297 273 286 307 277 249 240 238 238 235 235 239 243 249 256 269 261 255 257 246 258 251 221 217 218 210 238 237 243 263 270 279 305 348 276 261 269 267 276 274 256 251 240 223 213 228 238 235 242 238 235 239 235 233 238 241 242
299 301 303 307 310 315 317 321 325 328 330 331 334 335 339 341 340 342 342 346 348 348 348 343 340 334 327 317 306 279 244 254 283 303 323 311 268 241 234 236 236 237 240 242 248 254 275 269 243 244 238 250 253 240 240 217 200 232 254 249 263 271 273 279 286 261 258 259 248 251 259 260 254 244 235 226 234 244 242 249 259 244 235 236 237 237 236 239
294 295 297 299 301 304 306 311 315 317 322 323 325 326 329 332 334 335 334 338 339 341 342 339 337 334 329 312 297 273 238 252 274 283 293 300 285 251 236 237 238 240 241 242 246 253 277 266 245 250 249 246 259 261 247 187 185 227 264 262 272 282 277 271 277 264 254 249 244 249 268 261 241 245 250 243 244 250 251 252 258 259 247 239 238 236 238 242
290 292 293 294 295 297 298 301 303 307 311 312 316 317 319 322 324 325 325 328 329 332 333 332 333 332 328 308 301 285 253 261 277 284 288 290 278 259 245 242 243 245 245 243 241 243 263 265 259 264 267 266 304 319 301 174 200 223 250 260 271 285 280 273 270 258 250 248 247 250 260 251 242 249 262 256 254 253 252 250 250 255 256 249 245 243 242 244
289 289 290 291 292 293 293 295 296 297 299 301 305 305 309 312 314 317 317 318 320 322 324 325 327 328 324 308 300 285 268 273 281 282 285 286 274 260 250 247 248 247 245 244 237 230 239 258 267 266 287 297 304 308 293 256 220 227 263 278 293 294 287 281 267 251 241 242 238 236 248 250 251 256 265 260 258 257 252 246 245 248 252 249 247 247 246 245
289 288 288 289 290 291 291 292 292 293 294 294 296 296 299 301 305 308 309 312 313 315 318 319 323 324 318 305 276 261 284 288 281 279 281 282 276 261 253 250 250 248 246 244 236 228 228 247 263 267 290 295 290 280 256 232 250 281 298 300 296 287 281 274 267 255 241 237 225 215 240 253 251 237 256 262 261 259 250 243 242 241 245 246 243 244 246 247
288 288 288 288 289 290 290 291 291 291 291 291 292 292 292 293 296 299 302 306 306 310 313 315 319 318 310 293 236 246 286 290 284 286 284 282 276 265 260 254 251 248 243 239 238 237 231 237 251 264 278 273 291 281 242 230 255 280 305 304 284 277 274 262 256 249 238 239 222 212 248 259 243 205 243 257 258 250 239 235 236 233 238 243 242 241 241 245
287 287 287 287 287 288 289 290 290 290 290 290 290 290 291 292 292 293 295 298 300 303 306 310 313 312 307 277 252 265 286 287 284 285 283 282 275 267 264 257 252 247 241 237 241 248 241 241 244 244 253 258 296 295 246 246 275 287 297 298 280 275 271 257 248 236 221 228 211 197 269 260 226 219 245 257 254 244 238 233 232 228 232 239 242 241 239 243
288 288 288 287 287 288 288 288 288 289 289 288 288 289 291 292 292 292 292 293 295 297 299 304 308 309 296 268 273 284 288 284 283 281 279 279 273 266 260 256 254 247 243 239 238 246 246 248 244 235 249 260 271 273 277 289 287 278 257 252 277 285 268 254 247 222 203 198 179 162 259 256 229 225 240 260 253 235 232 232 231 227 230 237 242 243 241 242
290 290 290 290 290 290 290 290 289 288 287 287 287 288 290 291 292 291 291 292 293 294 296 299 303 302 274 271 286 287 280 280 278 276 275 274 269 264 258 255 254 249 246 243 241 246 248 249 246 243 253 248 249 271 288 288 261 251 265 249 254 276 270 264 237 185 178 182 168 157 253 255 263 239 236 253 244 224 222 226 227 226 232 239 243 245 244 243
290 291 291 291 292 292 292 292 291 289 289 288 287 288 289 289 290 291 291 291 291 292 293 295 296 288 266 275 285 282 276 274 270 271 272 270 266 263 257 252 252 250 248 247 246 248 247 244 237 239 254 243 242 271 290 271 244 212 248 260 229 230 262 277 170 168 171 175 173 165 254 250 261 262 251 244 229 212 214 222 224 226 233 241 246 247 246 246
289 291 292 294 295 295 295 294 293 292 291 290 289 289 289 289 289 290 290 290 289 289 289 289 286 276 261 275 278 276 273 267 267 271 271 270 263 254 253 252 251 250 247 246 246 244 241 238 235 237 248 241 219 228 264 271 263 215 200 246 240 236 264 269 183 189 174 132 184 195 235 255 240 244 243 214 209 206 212 219 223 231 236 241 247 248 247 247
288 290 292 294 296 297 297 297 296 296 294 294 293 292 292 291 290 289 289 287 285 282 280 274 271 267 255 267 272 268 267 266 268 273 272 269 254 243 247 250 248 247 245 243 243 237 229 224 226 239 238 232 214 207 240 256 257 241 213 238 240 236 256 256 271 231 187 138 198 211 234 256 248 238 240 208 201 207 214 220 231 244 246 247 251 249 247 246
289 290 291 293 295 296 296 297 298 298 298 298 299 298 297 296 295 292 287 282 276 274 273 243 218 251 256 255 258 257 262 267 269 274 273 260 244 239 234 231 234 236 233 238 239 223 214 216 208 235 247 225 213 200 209 229 236 251 245 259 261 246 250 254 279 213 186 185 216 212 230 250 255 259 259 253 235 221 221 228 242 252 253 255 256 253 251 248
292 292 293 295 295 296 297 297 297 298 298 299 301 302 301 301 299 292 282 267 248 235 263 221 194 205 250 247 248 249 258 267 270 270 265 249 237 230 218 214 215 207 203 210 220 201 191 199 202 222 249 225 210 206 215 232 240 256 264 269 270 270 267 264 274 186 179 200 219 218 231 247 254 249 247 256 254 244 239 236 239 247 249 254 257 256 254 251
295 296 297 298 298 299 299 299 299 300 301 300 302 306 308 309 304 295 269 246 241 245 260 241 216 228 245 252 256 255 258 266 269 264 262 251 230 222 214 209 205 207 214 201 187 188 184 187 206 221 238 230 217 217 224 236 244 254 264 267 267 272 269 267 276 210 182 199 218 224 234 245 254 253 242 250 255 256 252 244 240 243 246 251 256 257 255 254
300 301 302 302 303 305 304 303 303 302 304 305 307 313 311 298 290 288 277 267 268 267 266 259 244 241 247 250 251 256 260 266 265 258 260 246 218 212 204 196 193 211 218 217 215 192 187 207 219 226 240 243 238 237 237 241 245 250 254 264 271 265 266 271 277 205 181 203 233 236 246 250 254 258 254 250 251 251 251 251 250 250 251 255 258 258 258 257
308 307 308 308 308 311 309 309 308 305 307 307 308 310 291 284 280 275 282 282 277 272 265 261 253 245 246 246 247 254 255 256 256 248 249 235 210 205 192 184 198 214 195 205 227 222 211 229 232 237 249 256 257 256 255 259 257 259 263 276 274 267 274 278 267 189 169 194 242 249 254 257 261 262 258 251 246 245 246 248 253 255 255 258 260 258 257 255
316 316 317 316 317 320 317 316 315 312 312 309 306 302 290 289 283 277 279 274 276 272 260 255 248 243 245 244 246 249 244 243 246 242 245 232 202 200 199 184 208 222 188 193 210 222 227 226 232 243 252 253 256 251 243 266 265 250 251 264 265 260 268 275 254 187 180 208 242 268 266 259 266 266 260 252 248 250 250 247 251 255 256 258 259 259 255 248
321 323 321 322 325 327 327 325 324 325 325 322 316 308 299 292 283 285 285 267 271 267 260 257 246 240 242 244 247 243 237 240 241 240 242 225 195 196 209 204 215 225 217 214 217 230 239 231 224 236 241 239 247 244 228 250 259 239 220 231 253 255 251 257 257 216 210 233 239 295 288 261 242 251 257 252 245 246 247 244 246 251 254 257 260 259 253 244
320 321 323 326 328 332 333 330 333 340 334 326 324 317 311 300 279 297 308 277 257 238 250 252 238 238 240 239 239 233 234 241 237 237 235 217 198 190 205 209 212 227 227 228 234 242 245 240 231 229 230 225 232 242 219 216 258 259 212 217 242 254 256 261 276 300 302 269 222 147 289 267 208 226 249 252 229 231 237 232 235 243 248 252 256 257 252 242
314 316 320 321 325 333 335 333 335 337 335 326 326 318 303 286 261 309 334 284 260 187 189 212 214 229 229 227 222 212 234 251 232 231 226 212 205 197 197 199 206 233 226 226 243 250 240 223 220 220 224 224 228 251 225 206 258 272 225 224 244 255 260 261 272 280 256 263 243 121 303 286 247 217 239 233 196 218 228 223 232 240 242 241 246 253 254 243
305 309 313 314 320 328 328 329 327 330 334 323 322 316 287 252 232 325 357 284 262 155 144 179 184 192 196 203 195 183 233 247 199 215 207 204 204 201 214 200 197 229 205 187 255 236 189 175 162 202 217 220 226 247 229 198 236 265 260 287 263 262 266 262 264 245 235 286 276 154 135 279 276 235 210 202 188 219 229 226 238 241 240 238 239 248 252 244
299 302 305 306 311 317 319 320 322 328 326 316 313 293 260 211 195 16 353 280 255 128 136 179 178 194 182 169 180 183 298 114 147 201 196 196 197 196 226 225 222 228 166 172 239 252 145 182 194 201 197 218 223 235 217 183 213 250 65 43 78 70 310 331 274 253 285 321 264 188 149 254 281 246 183 193 190 213 225 225 238 242 243 240 238 244 247 242
295 296 298 300 303 306 309 310 315 324 318 316 309 266 209 184 196 28 249 259 205 116 133 164 172 198 163 149 189 212 267 120 160 191 183 194 195 189 237 242 251 263 217 210 234 260 212 178 210 189 182 225 218 184 72 178 209 216 135 72 78 77 7 60 251 259 345 287 240 190 157 223 277 257 167 193 200 209 221 222 233 242 245 245 240 240 241 237
287 289 292 293 295 298 301 301 305 317 317 313 289 225 171 183 220 298 236 249 357 102 120 145 169 156 148 134 209 226 230 198 110 131 157 190 199 201 281 300 276 282 267 259 259 261 225 88 33 209 195 208 135 87 26 72 174 160 135 75 63 290 5 63 247 107 10 270 235 185 180 197 268 260 154 188 198 198 209 213 227 239 243 246 243 235 231 229
279 282 283 284 287 290 291 292 296 309 316 305 253 181 166 188 236 229 233 256 19 169 128 149 172 144 161 179 201 202 206 220 147 148 168 172 191 206 243 258 200 304 298 286 271 263 241 134 52 243 186 123 99 90 15 27 35 116 118 109 23 301 12 34 284 110 225 266 217 176 186 191 236 253 143 190 195 191 201 205 218 227 234 239 237 229 225 224
275 274 275 277 280 281 277 278 285 298 309 289 208 179 188 246 232 234 233 63 58 198 150 167 178 166 191 209 211 171 174 204 172 175 200 166 176 199 201 201 164 141 270 247 244 252 245 230 208 195 187 169 152 108 25 358 308 150 131 132 117 284 310 325 245 148 225 256 225 178 181 197 236 245 198 221 207 194 206 212 212 208 217 228 226 220 221 220
273 273 272 268 268 272 273 277 281 285 298 271 203 183 298 250 235 232 208 176 234 175 121 156 178 185 193 202 216 171 177 216 168 182 211 177 197 216 207 216 199 222 249 220 238 227 260 259 192 161 257 189 171 174 214 264 196 182 161 149 168 213 250 251 240 242 243 257 269 190 177 212 262 247 203 217 221 201 203 217 217 208 212 222 218 213 214 215
273 278 279 271 265 267 269 273 274 273 273 245 198 162 225 235 247 234 176 210 239 247 93 104 162 189 203 211 203 161 185 234 162 174 202 171 198 229 209 216 215 232 262 237 275 193 248 287 186 163 210 180 180 206 212 175 165 199 175 159 197 198 220 247 234 248 261 278 289 197 173 215 272 214 193 205 218 208 200 212 220 220 224 228 219 210 208 209
276 276 280 277 268 263 263 265 266 261 247 213 168 169 211 229 252 266 243 246 253 239 207 35 149 188 223 236 213 182 206 233 169 166 198 189 204 220 201 199 200 204 184 209 255 171 234 277 197 162 149 162 182 222 208 137 105 218 152 164 231 205 197 248 253 253 285 322 273 227 214 237 257 260 226 211 218 212 204 211 215 220 225 224 214 204 203 207
276 271 273 272 266 263 261 260 261 252 229 188 139 205 221 233 246 228 279 298 280 272 102 346 227 194 233 229 201 212 222 246 182 169 210 216 228 229 206 181 189 195 191 192 224 185 230 283 180 144 37 138 174 264 206 172 243 196 142 195 229 164 169 226 266 276 301 286 272 260 255 270 304 281 244 216 214 212 208 211 210 218 221 217 209 203 203 210
275 272 270 266 264 265 262 258 255 239 211 174 156 208 217 237 239 242 297 331 319 317 344 237 215 185 230 236 204 203 192 216 193 174 195 213 230 225 214 212 187 190 203 205 221 242 233 266 226 158 296 289 355 335 288 270 89 124 175 230 263 31 81 181 257 305 268 258 271 274 270 280 291 280 253 190 204 209 206 208 212 217 216 214 212 211 214 220
276 276 272 269 267 264 260 258 247 222 193 168 209 224 218 232 229 237 271 293 300 289 266 255 225 190 230 255 242 191 172 190 184 171 203 217 215 195 187 213 194 189 206 210 223 270 229 254 270 144 246 305 18 345 285 317 70 138 229 296 74 208 248 175 183 223 244 251 267 277 281 279 255 261 294 212 200 205 206 207 212 214 210 211 216 220 224 226
274 272 270 274 271 262 261 254 230 200 175 170 219 226 232 244 248 252 261 278 299 271 253 259 252 234 249 263 273 204 175 193 183 175 207 210 222 194 169 193 205 195 202 201 211 252 206 231 258 1 328 317 8 242 188 215 267 121 344 341 63 180 190 185 198 204 224 240 262 277 283 277 254 248 265 227 195 200 206 206 212 213 208 208 213 223 227 226
274 261 261 270 270 264 253 233 206 182 169 207 214 222 241 257 268 256 250 254 267 264 253 262 265 262 267 273 281 272 214 206 201 206 211 198 230 228 172 183 202 201 203 199 203 219 182 220 235 290 359 283 251 204 177 189 208 190 235 258 235 226 207 258 253 224 220 230 246 256 265 271 270 216 227 211 184 197 202 198 212 217 213 214 216 223 225 225
270 251 261 265 267 241 210 197 182 176 198 229 223 233 242 253 276 263 254 251 250 258 265 272 267 271 283 279 276 278 259 238 224 222 227 221 236 252 171 192 202 175 181 197 206 206 179 208 222 208 202 232 243 218 192 202 206 193 203 213 218 218 214 257 250 227 224 230 235 239 253 264 270 74 63 195 179 200 199 193 213 217 217 221 222 225 227 229
257 246 263 260 252 198 187 180 177 198 202 216 229 233 226 234 253 259 262 264 263 268 284 292 260 259 271 266 265 277 277 274 266 247 256 256 246 262 12 354 329 112 133 197 226 218 131 156 226 235 225 239 255 238 196 215 224 221 223 216 218 211 200 226 240 240 247 236 234 247 252 258 266 66 49 75 167 205 209 194 202 213 218 224 226 228 232 235
243 244 253 253 240 199 185 183 218 207 212 238 237 242 230 227 247 248 248 251 246 240 238 245 242 240 246 248 252 265 270 262 254 251 264 279 277 289 349 4 1 2 320 299 299 0 66 119 227 251 264 287 287 290 11 18 353 284 265 238 223 221 220 233 245 256 258 236 232 250 249 257 272 93 130 184 157 187 212 200 196 215 222 224 226 229 234 239
251 252 242 237 225 201 189 193 219 212 233 242 244 251 241 241 250 245 239 229 219 212 222 231 229 229 234 235 241 249 250 247 243 247 261 268 266 278 307 336 349 344 291 305 340 20 5 211 236 261 274 292 301 295 294 347 42 249 252 247 241 245 250 258 263 260 256 243 240 251 252 259 274 248 190 215 203 204 227 224 220 229 234 234 234 237 241 245
265 257 236 221 207 199 202 215 219 218 217 224 237 240 239 247 237 233 239 237 229 226 231 234 217 215 224 228 241 240 231 234 245 261 272 263 259 268 280 291 291 239 224 144 100 78 76 251 271 255 248 249 253 258 260 262 78 232 248 243 244 245 246 253 260 251 250 244 239 249 259 264 273 277 271 263 254 251 255 252 244 244 248 246 244 246 247 246
264 248 222 208 201 205 217 222 223 230 213 219 235 227 229 242 235 232 237 240 238 233 234 237 195 190 219 219 235 244 237 235 235 227 223 232 244 254 253 256 255 244 244 214 123 100 113 198 222 228 234 240 242 250 263 270 261 262 260 249 248 248 246 251 254 249 256 260 249 250 259 264 269 277 278 274 271 269 270 272 271 266 263 256 250 249 248 246
256 255 222 200 203 216 230 226 223 227 210 214 215 190 223 234 236 232 228 226 233 231 234 237 210 207 220 217 230 244 238 237 237 232 232 233 236 246 245 247 248 243 241 216 172 146 128 206 216 223 230 233 239 248 256 261 258 256 258 257 257 252 243 245 248 248 258 264 258 255 263 267 266 266 271 274 276 276 275 277 279 277 274 268 259 253 248 247
241 258 246 256 233 212 229 229 231 237 223 219 214 206 229 235 229 224 221 226 230 221 218 231 217 218 226 224 233 242 234 241 243 233 236 238 238 250 252 246 241 239 235 214 185 166 172 228 218 222 231 230 234 242 245 249 251 249 249 251 254 252 245 246 249 249 247 249 257 264 266 268 268 265 268 271 274 278 283 284 283 281 279 276 270 258 251 249
258 275 271 284 303 285 291 278 256 254 246 239 233 223 232 235 230 226 220 230 236 217 213 232 226 220 225 226 232 237 231 237 242 232 227 229 226 233 248 245 241 237 228 216 203 173 178 228 219 227 238 235 234 238 239 243 249 251 249 246 247 251 251 249 250 250 249 250 256 261 260 262 266 266 265 267 272 280 287 285 283 282 280 279 274 262 258 258
263 280 300 312 314 304 301 294 280 275 261 257 255 241 244 246 242 239 226 224 236 215 209 230 236 228 225 225 228 234 229 230 240 240 232 229 221 212 229 235 232 231 215 205 206 191 203 216 209 223 245 239 235 239 237 237 242 246 249 249 249 251 251 249 248 248 250 252 251 250 255 260 261 259 261 267 275 281 282 280 278 277 278 279 276 267 264 266
260 274 298 313 310 298 292 277 258 262 247 238 249 258 265 261 258 264 254 242 247 243 224 233 240 236 235 233 230 233 234 232 238 241 238 240 235 212 209 216 211 209 194 189 191 188 207 221 209 224 249 234 228 236 237 235 237 239 244 250 250 247 244 242 241 239 240 244 246 247 249 251 251 253 259 267 270 270 269 270 272 274 274 275 276 272 266 266
275 282 287 294 288 268 279 284 272 267 257 240 244 251 259 266 270 276 275 258 254 259 261 259 256 252 248 242 240 249 256 255 257 258 255 255 251 240 232 222 209 202 179 177 192 182 192 213 210 218 245 242 227 234 238 237 238 233 228 234 240 242 242 242 244 245 243 241 242 243 243 245 249 253 259 262 262 260 259 259 262 268 273 275 277 277 271 266
Height
1550 1550 1549 1549 1548 1548 1548 1547 1547 1546 1546 1545 1545 1544 1544 1543 1543 1542 1541 1541 1540 1540 1539 1539 1538 1538 1537 1537 1537 1537 1537 1536 1536 1535 1534 1534 1535 1535 1535 1535 1535 1535 1535 1535 1535 1534 1534 1535 1535 1535 1536 1535 1535 1535 1535 1535 1535 1536 1536 1538 1538 1532 1526 1520 1517 1517 1516 1517 1516 1517 1517 1517 1517 1517 1517 1518 1518 1518 1518 1518 1518 1519 1518 1518 1518 1517 1517 1518
1551 1550 1549 1549 1549 1548 1548 1547 1547 1546 1546 1545 1545 1544 1544 1543 1543 1542 1542 1541 1540 1540 1539 1538 1538 1537 1537 1537 1536 1536 1536 1535 1535 1533 1532 1533 1534 1534 1534 1534 1535 1535 1535 1534 1534 1534 1535 1535 1535 1535 1535 1535 1534 1534 1534 1533 1534 1534 1533 1534 1532 1526 1520 1515 1514 1514 1514 1516 1515 1515 1516 1516 1517 1516 1516 1517 1516 1516 1516 1516 1516 1517 1516 1516 1516 1515 1515 1516
1551 1550 1550 1549 1549 1548 1548 1547 1547 1546 1546 1545 1545 1544 1544 1543 1543 1542 1542 1541 1540 1540 1539 1538 1538 1537 1537 1536 1535 1535 1535 1535 1533 1530 1530 1532 1532 1533 1533 1534 1534 1534 1534 1534 1534 1534 1534 1535 1535 1535 1535 1534 1533 1533 1532 1532 1532 1531 1532 1534 1527 1520 1517 1514 1513 1513 1514 1515 1515 1515 1515 1515 1516 1515 1515 1516 1515 1514 1513 1513 1514 1513 1512 1512 1512 1512 1512 1513
1550 1550 1550 1549 1549 1548 1548 1548 1547 1546 1546 1545 1545 1544 1544 1543 1543 1542 1541 1541 1540 1540 1539 1538 1537 1537 1536 1535 1535 1535 1534 1534 1530 1528 1528 1530 1531 1531 1532 1533 1533 1533 1534 1534 1534 1534 1534 1534 1535 1534 1534 1533 1532 1531 1530 1530 1530 1529 1529 1530 1523 1517 1517 1515 1513 1514 1514 1515 1515 1515 1515 1514 1515 1515 1514 1514 1515 1512 1509 1509 1509 1508 1508 1509 1509 1509 1510 1510
1550 1549 1549 1549 1549 1548 1548 1547 1547 1546 1546 1545 1545 1544 1544 1543 1542 1542 1541 1541 1540 1539 1539 1538 1537 1537 1536 1535 1535 1534 1535 1534 1529 1527 1528 1528 1529 1530 1531 1531 1532 1532 1533 1533 1533 1533 1533 1533 1534 1534 1534 1532 1530 1530 1528 1527 1528 1527 1525 1523 1519 1517 1517 1515 1514 1514 1514 1514 1515 1515 1514 1513 1513 1513 1511 1513 1512 1507 1506 1507 1505 1505 1505 1506 1506 1506 1507 1507
1549 1549 1549 1548 1548 1548 1547 1547 1547 1546 1546 1545 1545 1544 1544 1543 1542 1542 1541 1540 1540 1539 1538 1538 1537 1536 1536 1535 1535 1534 1535 1533 1528 1527 1528 1528 1529 1529 1529 1530 1531 1532 1532 1532 1533 1533 1532 1533 1533 1533 1532 1531 1529 1527 1525 1524 1525 1526 1522 1519 1518 1517 1516 1514 1514 1514 1514 1514 1514 1514 1512 1511 1512 1510 1509 1509 1505 1502 1504 1505 1504 1504 1504 1504 1503 1503 1503 1503
1548 1548 1548 1547 1547 1547 1547 1547 1546 1546 1545 1545 1544 1544 1543 1543 1542 1542 1541 1540 1539 1539 1538 1537 1537 1536 1535 1534 1534 1533 1533 1530 1527 1527 1527 1528 1528 1528 1529 1529 1530 1530 1531 1532 1532 1532 1532 1532 1532 1531 1530 1529 1527 1524 1523 1522 1524 1525 1522 1518 1516 1515 1514 1514 1514 1512 1513 1513 1512 1512 1511 1510 1510 1509 1508 1504 1499 1499 1503 1503 1503 1503 1503 1503 1502 1501 1500 1500
1547 1547 1547 1546 1546 1546 1546 1545 1545 1545 1545 1544 1544 1543 1543 1542 1542 1541 1540 1540 1539 1538 1538 1537 1536 1536 1535 1534 1533 1533 1531 1528 1526 1527 1527 1527 1527 1527 1528 1528 1529 1529 1530 1530 1531 1531 1532 1531 1531 1530 1529 1527 1526 1523 1522 1523 1523 1522 1520 1517 1515 1514 1513 1513 1513 1511 1511 1511 1511 1511 1510 1508 1507 1508 1505 1497 1495 1498 1500 1501 1501 1501 1501 1501 1500 1499 1498 1498
1546 1546 1545 1545 1545 1545 1544 1544 1544 1544 1543 1543 1543 1542 1542 1541 1541 1540 1540 1539 1538 1538 1537 1536 1536 1535 1534 1533 1533 1532 1528 1526 1526 1526 1526 1526 1526 1526 1526 1526 1527 1528 1528 1529 1529 1530 1530 1530 1529 1529 1528 1527 1525 1523 1523 1524 1522 1519 1517 1516 1514 1513 1512 1512 1511 1509 1510 1509 1510 1510 1507 1506 1506 1508 1501 1490 1492 1495 1496 1498 1498 1498 1498 1497 1497 1496 1496 1496
1544 1544 1544 1544 1544 1543 1543 1543 1543 1542 1542 1542 1541 1541 1541 1540 1540 1539 1539 1538 1537 1537 1536 1536 1535 1534 1533 1532 1533 1531 1526 1525 1526 1525 1525 1525 1525 1525 1525 1525 1526 1526 1527 1527 1528 1528 1528 1529 1528 1528 1528 1526 1525 1523 1522 1522 1520 1517 1516 1516 1514 1513 1511 1510 1509 1507 1508 1507 1507 1507 1506 1504 1505 1507 1497 1485 1489 1491 1492 1494 1494 1495 1494 1494 1494 1493 1493 1493
1542 1542 1542 1542 1542 1542 1541 1541 1541 1541 1540 1540 1540 1539 1539 1539 1538 1538 1537 1537 1536 1535 1535 1534 1534 1533 1532 1531 1532 1528 1525 1525 1525 1524 1525 1524 1524 1524 1523 1524 1524 1524 1525 1525 1526 1526 1527 1527 1527 1527 1527 1526 1524 1522 1520 1519 1517 1516 1516 1515 1512 1512 1509 1507 1505 1504 1505 1505 1503 1504 1505 1504 1505 1504 1491 1483 1487 1489 1489 1490 1491 1492 1490 1490 1491 1490 1490 1489
1540 1540 1539 1540 1540 1540 1540 1539 1539 1539 1539 1539 1538 1538 1537 1537 1536 1536 1535 1535 1534 1534 1533 1533 1532 1531 1531 1530 1527 1525 1524 1524 1523 1523 1523 1522 1522 1522 1522 1522 1522 1523 1523 1524 1524 1524 1525 1525 1525 1526 1525 1524 1523 1521 1519 1517 1517 1517 1517 1517 1511 1509 1506 1502 1500 1500 1502 1502 1500 1505 1507 1503 1499 1495 1485 1481 1485 1487 1487 1487 1488 1488 1487 1487 1487 1487 1486 1485
1538 1538 1537 1537 1537 1537 1537 1537 1537 1537 1537 1536 1536 1536 1536 1535 1535 1534 1534 1533 1533 1532 1531 1531 1530 1530 1529 1526 1523 1522 1523 1522 1522 1521 1521 1521 1521 1520 1521 1521 1521 1522 1522 1522 1522 1522 1523 1523 1524 1524 1523 1523 1521 1520 1518 1516 1517 1516 1516 1517 1513 1511 1505 1495 1494 1495 1498 1500 1498 1505 1508 1497 1488 1485 1481 1480 1482 1484 1485 1484 1484 1485 1485 1484 1484 1483 1482 1481
1536 1536 1535 1535 1535 1535 1535 1534 1534 1534 1534 1534 1534 1534 1534 1533 1533 1532 1532 1531 1531 1530 1530 1529 1529 1528 1527 1523 1520 1520 1520 1520 1520 1519 1519 1519 1518 1519 1519 1519 1520 1520 1520 1520 1520 1521 1521 1522 1522 1522 1521 1521 1519 1519 1518 1516 1517 1515 1515 1515 1512 1515 1505 1490 1489 1490 1495 1499 1496 1504 1507 1494 1482 1480 1478 1478 1479 1481 1481 1480 1481 1481 1481 1481 1480 1479 1477 1477
1534 1534 1534 1533 1533 1533 1532 1532 1531 1531 1531 1531 1531 1531 1531 1531 1530 1530 1530 1529 1529 1528 1528 1527 1526 1526 1525 1520 1517 1518 1517 1517 1517 1516 1516 1516 1516 1517 1517 1517 1518 1518 1519 1519 1519 1520 1520 1521 1521 1520 1519 1518 1518 1519 1519 1517 1514 1512 1518 1516 1510 1513 1504 1489 1487 1487 1491 1497 1496 1502 1504 1492 1482 1477 1475 1475 1476 1477 1477 1477 1478 1478 1478 1477 1476 1475 1473 1472
1533 1533 1532 1532 1532 1531 1530 1530 1529 1529 1529 1528 1528 1528 1528 1528 1527 1527 1527 1526 1526 1526 1525 1525 1524 1525 1524 1518 1515 1515 1514 1514 1514 1514 1514 1514 1515 1515 1515 1516 1516 1516 1517 1517 1518 1519 1519 1519 1519 1519 1518 1517 1517 1519 1520 1521 1515 1508 1513 1515 1509 1508 1502 1492 1489 1486 1487 1493 1496 1497 1494 1485 1479 1475 1473 1474 1474 1475 1475 1475 1475 1474 1474 1473 1472 1470 1469 1469
1532 1531 1531 1531 1530 1530 1529 1528 1528 1527 1526 1526 1525 1525 1525 1524 1524 1524 1523 1523 1523 1522 1523 1523 1522 1523 1520 1515 1513 1512 1511 1512 1512 1512 1512 1513 1513 1513 1514 1514 1515 1515 1515 1516 1517 1517 1518 1518 1518 1517 1515 1515 1515 1517 1524 1527 1519 1509 1506 1507 1504 1500 1499 1495 1490 1487 1487 1491 1493 1494 1491 1482 1476 1474 1474 1473 1474 1474 1473 1473 1472 1471 1471 1469 1467 1466 1464 1464
1530 1530 1529 1529 1529 1528 1527 1527 1526 1525 1524 1524 1523 1522 1522 1521 1521 1520 1519 1519 1519 1520 1521 1520 1522 1524 1518 1511 1510 1509 1508 1510 1510 1510 1511 1511 1511 1512 1513 1513 1514 1514 1515 1515 1515 1515 1517 1516 1515 1516 1514 1513 1513 1515 1523 1520 1511 1507 1503 1502 1500 1495 1495 1492 1487 1486 1487 1489 1491 1493 1491 1482 1475 1475 1474 1472 1473 1471 1469 1470 1469 1467 1467 1465 1463 1462 1461 1460
1529 1528 1528 1528 1527 1526 1525 1525 1525 1524 1523 1522 1522 1521 1520 1519 1518 1516 1515 1515 1516 1516 1517 1515 1515 1518 1513 1506 1506 1507 1507 1508 1508 1508 1508 1509 1510 1510 1511 1512 1513 1513 1514 1514 1512 1512 1514 1514 1515 1517 1513 1509 1507 1508 1510 1505 1500 1500 1498 1498 1498 1495 1493 1486 1482 1483 1485 1488 1490 1489 1486 1479 1474 1473 1472 1469 1469 1468 1466 1466 1465 1463 1462 1460 1457 1456 1457 1456
1527 1527 1526 1526 1525 1524 1523 1523 1523 1522 1521 1520 1520 1519 1518 1517 1516 1514 1512 1511 1510 1510 1510 1509 1508 1508 1506 1504 1505 1506 1506 1506 1506 1505 1506 1507 1508 1509 1510 1511 1512 1512 1512 1511 1511 1509 1510 1514 1515 1511 1503 1499 1500 1500 1498 1496 1495 1495 1495 1495 1494 1495 1491 1482 1480 1481 1481 1485 1485 1480 1479 1475 1470 1468 1467 1466 1465 1463 1462 1461 1460 1458 1457 1454 1451 1451 1451 1450
1526 1526 1525 1524 1524 1523 1522 1522 1521 1520 1520 1519 1519 1518 1518 1518 1516 1514 1512 1508 1506 1506 1506 1506 1506 1504 1503 1503 1503 1503 1504 1504 1503 1502 1503 1505 1506 1507 1507 1508 1510 1510 1508 1508 1509 1507 1508 1511 1507 1498 1492 1493 1496 1494 1493 1493 1492 1492 1493 1494 1493 1493 1487 1479 1479 1479 1479 1482 1480 1476 1476 1473 1467 1464 1462 1462 1461 1459 1457 1457 1455 1452 1451 1448 1446 1446 1445 1445
1525 1524 1524 1523 1522 1521 1521 1520 1519 1519 1518 1518 1518 1518 1517 1517 1516 1515 1512 1507 1502 1503 1503 1502 1503 1502 1501 1502 1501 1502 1502 1501 1500 1498 1500 1503 1503 1503 1503 1504 1506 1505 1504 1507 1508 1508 1508 1505 1497 1491 1490 1493 1493 1491 1491 1491 1490 1491 1491 1494 1496 1490 1484 1479 1477 1478 1479 1482 1480 1476 1475 1471 1464 1461 1458 1457 1455 1453 1451 1451 1449 1446 1445 1443 1441 1441 1440 1442
1524 1523 1523 1522 1521 1521 1520 1519 1518 1517 1517 1517 1516 1516 1516 1515 1515 1513 1513 1508 1499 1497 1498 1497 1498 1497 1498 1499 1498 1499 1498 1495 1495 1493 1495 1499 1498 1500 1501 1500 1501 1500 1501 1503 1504 1505 1505 1497 1491 1490 1491 1492 1490 1489 1491 1491 1491 1491 1492 1497 1495 1487 1487 1485 1479 1479 1480 1480 1478 1476 1475 1471 1465 1458 1453 1449 1447 1445 1446 1446 1444 1441 1440 1437 1435 1437 1437 1438
1522 1522 1522 1521 1521 1520 1518 1518 1517 1516 1516 1515 1515 1515 1514 1514 1514 1512 1511 1506 1495 1491 1491 1490 1492 1491 1491 1493 1493 1494 1492 1489 1490 1488 1490 1493 1494 1497 1497 1496 1498 1498 1497 1496 1495 1494 1490 1487 1487 1488 1488 1488 1489 1488 1489 1493 1492 1488 1490 1494 1489 1483 1484 1483 1477 1477 1478 1477 1476 1478 1475 1465 1460 1455 1446 1440 1440 1439 1439 1440 1439 1436 1434 1433 1431 1432 1434 1434
1521 1522 1521 1520 1521 1519 1519 1517 1515 1516 1515 1514 1515 1514 1514 1513 1513 1512 1510 1505 1493 1486 1486 1486 1486 1485 1485 1487 1487 1488 1487 1484 1484 1484 1484 1487 1490 1492 1492 1493 1495 1494 1492 1491 1491 1487 1482 1483 1485 1485 1485 1485 1487 1488 1489 1492 1490 1487 1486 1484 1481 1479 1479 1478 1476 1478 1482 1482 1478 1480 1477 1454 1442 1446 1440 1434 1436 1435 1434 1435 1434 1431 1429 1430 1428 1427 1429 1430
1520 1520 1519 1520 1519 1519 1519 1516 1515 1516 1514 1514 1514 1513 1514 1513 1512 1512 1511 1507 1493 1481 1482 1483 1481 1479 1479 1480 1480 1485 1487 1481 1479 1481 1482 1484 1486 1488 1489 1490 1489 1488 1487 1487 1486 1480 1477 1479 1480 1482 1484 1484 1487 1489 1487 1488 1491 1489 1482 1477 1477 1476 1477 1478 1478 1482 1487 1484 1476 1477 1481 1459 1435 1437 1437 1431 1433 1431 1430 1431 1428 1427 1425 1425 1425 1423 1425 1426
1518 1519 1518 1518 1518 1518 1518 1517 1517 1515 1514 1515 1513 1513 1514 1512 1513 1513 1511 1509 1491 1474 1476 1478 1477 1475 1475 1476 1477 1482 1486 1478 1476 1479 1480 1482 1484 1485 1487 1484 1484 1483 1482 1486 1487 1477 1473 1477 1479 1480 1483 1485 1488 1487 1481 1484 1491 1486 1479 1478 1477 1476 1479 1479 1479 1485 1483 1480 1478 1474 1483 1475 1442 1429 1431 1427 1431 1430 1427 1429 1426 1423 1421 1420 1421 1421 1421 1423
1517 1517 1517 1517 1517 1517 1517 1517 1517 1515 1515 1514 1512 1514 1513 1512 1515 1511 1515 1516 1487 1465 1471 1474 1474 1474 1473 1476 1476 1477 1479 1474 1475 1478 1477 1480 1482 1483 1483 1479 1480 1481 1479 1486 1487 1476 1471 1476 1477 1478 1483 1485 1483 1479 1476 1480 1484 1481 1478 1479 1478 1478 1480 1479 1481 1484 1482 1484 1486 1474 1481 1483 1444 1420 1425 1422 1426 1430 1424 1424 1422 1417 1416 1415 1416 1417 1417 1419
1516 1515 1515 1515 1515 1515 1516 1516 1516 1515 1515 1514 1513 1513 1512 1514 1514 1510 1520 1516 1478 1461 1471 1472 1473 1475 1473 1477 1477 1475 1476 1474 1475 1476 1476 1480 1481 1481 1482 1480 1480 1481 1479 1481 1480 1474 1473 1475 1474 1475 1481 1479 1474 1475 1476 1477 1477 1477 1479 1478 1479 1480 1479 1482 1483 1485 1488 1487 1483 1474 1479 1483 1443 1413 1423 1425 1423 1426 1420 1419 1417 1412 1411 1410 1411 1413 1413 1415
1514 1513 1514 1513 1512 1514 1514 1513 1515 1515 1514 1514 1514 1513 1513 1515 1514 1516 1522 1503 1470 1465 1472 1471 1472 1473 1473 1477 1477 1475 1475 1475 1475 1476 1478 1479 1479 1480 1481 1481 1482 1482 1481 1480 1476 1473 1473 1475 1476 1475 1474 1471 1472 1478 1479 1478 1477 1477 1480 1479 1482 1482 1480 1486 1483 1484 1493 1479 1466 1466 1469 1478 1451 1412 1415 1422 1416 1416 1414 1414 1413 1408 1408 1407 1408 1409 1410 1411
1511 1512 1511 1511 1511 1512 1512 1512 1513 1513 1514 1514 1513 1514 1515 1514 1514 1517 1507 1481 1468 1469 1469 1470 1472 1470 1471 1472 1471 1472 1474 1475 1475 1476 1477 1478 1479 1481 1481 1481 1483 1485 1485 1484 1478 1474 1474 1477 1475 1471 1470 1470 1473 1477 1478 1480 1479 1478 1480 1481 1484 1484 1483 1489 1486 1490 1497 1469 1448 1451 1456 1469 1455 1414 1406 1410 1404 1406 1408 1408 1408 1405 1405 1404 1404 1406 1406 1407
1509 1509 1509 1508 1508 1509 1510 1511 1511 1513 1514 1513 1514 1515 1515 1517 1513 1502 1485 1471 1470 1467 1462 1466 1468 1467 1468 1467 1465 1468 1471 1471 1472 1473 1473 1476 1477 1477 1477 1476 1478 1483 1485 1482 1478 1474 1473 1470 1468 1468 1469 1469 1471 1476 1481 1482 1480 1480 1481 1484 1490 1491 1488 1491 1490 1490 1488 1461 1439 1442 1451 1455 1433 1405 1405 1406 1401 1403 1403 1403 1402 1400 1401 1400 1400 1402 1402 1404
1506 1506 1506 1505 1505 1506 1508 1509 1510 1514 1514 1513 1516 1515 1517 1521 1503 1478 1471 1472 1467 1461 1458 1460 1462 1463 1465 1466 1466 1466 1468 1468 1467 1470 1470 1471 1474 1472 1472 1471 1471 1474 1474 1474 1475 1475 1471 1463 1463 1469 1467 1464 1466 1472 1477 1475 1476 1478 1477 1481 1489 1490 1490 1490 1485 1478 1469 1451 1438 1441 1449 1441 1415 1399 1401 1400 1398 1399 1397 1399 1398 1395 1397 1397 1396 1398 1399 1400
1502 1503 1503 1502 1502 1504 1505 1506 1508 1511 1513 1513 1516 1517 1522 1518 1487 1464 1468 1469 1461 1458 1459 1458 1460 1463 1463 1464 1462 1461 1466 1466 1463 1467 1469 1469 1473 1472 1469 1468 1468 1469 1470 1473 1472 1472 1473 1461 1456 1462 1459 1456 1458 1458 1458 1459 1466 1470 1465 1470 1475 1474 1477 1478 1472 1464 1456 1448 1442 1444 1445 1430 1410 1399 1392 1389 1391 1392 1392 1394 1394 1393 1394 1394 1394 1395 1395 1397
1499 1499 1499 1498 1498 1500 1502 1503 1504 1508 1510 1510 1514 1520 1520 1505 1479 1469 1471 1465 1459 1459 1459 1460 1461 1465 1465 1462 1460 1457 1460 1462 1460 1465 1467 1466 1468 1465 1461 1462 1464 1465 1470 1476 1469 1465 1470 1456 1444 1449 1449 1449 1452 1449 1449 1454 1462 1463 1461 1467 1468 1461 1461 1463 1458 1451 1453 1457 1446 1439 1434 1415 1400 1392 1385 1387 1388 1387 1390 1389 1389 1391 1390 1392 1392 1391 1393 1394
1495 1494 1495 1494 1493 1496 1499 1500 1501 1504 1505 1506 1514 1520 1509 1489 1475 1472 1467 1462 1461 1459 1461 1464 1463 1466 1466 1461 1460 1459 1458 1459 1461 1464 1465 1463 1460 1455 1453 1453 1456 1459 1461 1466 1461 1458 1463 1453 1443 1449 1449 1449 1453 1451 1451 1454 1456 1458 1462 1463 1457 1452 1453 1460 1459 1450 1456 1465 1442 1425 1422 1409 1399 1388 1376 1382 1386 1384 1389 1387 1387 1388 1386 1388 1389 1388 1391 1392
1491 1491 1490 1488 1488 1492 1495 1497 1497 1499 1500 1503 1508 1507 1493 1479 1471 1468 1464 1463 1464 1461 1463 1467 1462 1462 1463 1459 1458 1459 1459 1459 1460 1462 1463 1461 1454 1448 1448 1448 1447 1450 1450 1453 1452 1449 1452 1448 1444 1450 1452 1451 1454 1453 1452 1452 1452 1457 1461 1455 1449 1451 1453 1458 1465 1461 1462 1465 1439 1419 1418 1414 1410 1392 1371 1377 1385 1383 1385 1385 1383 1383 1383 1386 1386 1386 1389 1389
1488 1487 1485 1481 1483 1487 1490 1494 1494 1494 1498 1501 1501 1492 1481 1473 1467 1467 1466 1465 1466 1464 1465 1466 1459 1455 1457 1456 1453 1453 1458 1459 1458 1461 1459 1455 1447 1438 1441 1444 1441 1442 1443 1446 1449 1446 1447 1448 1448 1452 1455 1453 1453 1454 1453 1452 1453 1454 1455 1453 1452 1457 1457 1456 1464 1466 1464 1462 1441 1422 1418 1411 1402 1388 1374 1379 1384 1380 1381 1380 1378 1379 1380 1382 1383 1384 1387 1387
1485 1484 1480 1476 1479 1483 1486 1490 1491 1492 1496 1499 1498 1488 1476 1469 1465 1466 1468 1466 1465 1464 1464 1462 1458 1454 1453 1453 1450 1450 1455 1455 1454 1457 1455 1450 1444 1433 1433 1437 1436 1436 1437 1440 1445 1443 1444 1449 1450 1453 1457 1456 1454 1454 1452 1451 1454 1456 1456 1457 1454 1454 1455 1452 1453 1452 1451 1453 1442 1431 1425 1401 1378 1374 1373 1375 1377 1376 1376 1376 1376 1377 1377 1378 1380 1381 1382 1384
1482 1481 1476 1473 1476 1480 1483 1486 1488 1491 1492 1490 1488 1481 1472 1468 1466 1465 1466 1466 1464 1462 1461 1459 1458 1457 1453 1451 1450 1449 1451 1451 1450 1452 1449 1443 1439 1432 1429 1431 1432 1433 1433 1435 1439 1439 1443 1447 1446 1452 1459 1456 1449 1447 1446 1444 1448 1453 1457 1458 1455 1453 1453 1451 1448 1440 1439 1444 1440 1438 1431 1394 1364 1366 1369 1368 1372 1373 1372 1374 1375 1376 1375 1375 1376 1376 1378 1380
1481 1478 1473 1471 1474 1476 1480 1484 1485 1487 1486 1482 1478 1474 1471 1469 1466 1463 1463 1465 1464 1460 1460 1460 1459 1460 1458 1456 1454 1451 1450 1449 1447 1448 1445 1440 1439 1436 1431 1429 1429 1431 1433 1436 1437 1436 1441 1443 1442 1446 1450 1444 1435 1433 1435 1434 1434 1441 1446 1446 1446 1447 1451 1453 1448 1434 1430 1434 1429 1431 1428 1391 1362 1366 1368 1366 1371 1370 1370 1373 1373 1373 1374 1373 1374 1375 1376 1377
1478 1475 1470 1470 1472 1473 1477 1480 1479 1479 1479 1475 1470 1469 1469 1468 1464 1462 1462 1463 1462 1460 1459 1459 1459 1460 1460 1459 1458 1454 1452 1451 1448 1446 1443 1439 1438 1437 1433 1432 1431 1431 1433 1435 1434 1432 1434 1438 1439 1438 1434 1430 1428 1427 1430 1429 1428 1432 1434 1434 1435 1438 1442 1445 1439 1429 1427 1427 1421 1424 1421 1388 1363 1367 1370 1368 1370 1370 1370 1370 1370 1372 1372 1371 1373 1374 1374 1375
1473 1471 1469 1469 1470 1471 1475 1476 1476 1475 1472 1468 1466 1465 1466 1465 1462 1461 1461 1461 1461 1460 1459 1458 1457 1457 1457 1456 1457 1456 1455 1452 1448 1445 1444 1442 1439 1437 1436 1436 1435 1435 1435 1434 1432 1432 1435 1438 1441 1438 1431 1426 1426 1425 1428 1430 1433 1435 1432 1431 1432 1431 1431 1429 1426 1425 1425 1422 1421 1423 1414 1385 1366 1369 1371 1369 1369 1370 1370 1369 1369 1371 1370 1370 1372 1372 1372 1373
1469 1468 1468 1468 1468 1469 1469 1469 1469 1470 1468 1467 1466 1465 1465 1463 1461 1460 1459 1458 1457 1456 1455 1453 1452 1452 1452 1452 1453 1452 1454 1453 1447 1442 1444 1444 1441 1439 1438 1437 1437 1438 1438 1437 1434 1435 1438 1438 1441 1445 1444 1439 1436 1434 1431 1432 1435 1436 1433 1430 1429 1428 1429 1427 1425 1425 1422 1417 1417 1414 1401 1383 1371 1370 1371 1370 1368 1368 1369 1368 1369 1369 1368 1369 1369 1369 1370 1369
1467 1466 1464 1464 1465 1463 1459 1458 1460 1462 1463 1465 1463 1461 1462 1460 1457 1456 1454 1452 1452 1452 1450 1448 1448 1448 1448 1449 1449 1447 1448 1450 1448 1444 1445 1446 1442 1438 1438 1438 1438 1437 1437 1437 1436 1436 1440 1442 1445 1452 1455 1451 1447 1439 1431 1429 1433 1435 1432 1429 1426 1426 1428 1427 1427 1426 1421 1414 1410 1403 1393 1383 1374 1370 1370 1369 1367 1367 1366 1365 1366 1367 1367 1366 1367 1366 1366 1365
1466 1463 1460 1460 1461 1458 1453 1453 1454 1454 1456 1459 1457 1456 1457 1455 1450 1449 1449 1448 1447 1446 1445 1444 1445 1447 1447 1447 1447 1445 1443 1444 1445 1444 1445 1444 1441 1436 1434 1434 1435 1435 1434 1436 1436 1437 1444 1447 1447 1449 1448 1444 1440 1433 1426 1427 1430 1432 1430 1426 1426 1426 1425 1426 1427 1424 1419 1413 1405 1396 1391 1386 1381 1377 1371 1364 1363 1364 1363 1362 1363 1364 1364 1363 1363 1364 1362 1360
1464 1459 1456 1456 1456 1454 1451 1449 1449 1447 1448 1451 1450 1447 1448 1447 1446 1446 1445 1442 1440 1440 1441 1441 1442 1443 1443 1443 1442 1440 1438 1438 1439 1440 1439 1439 1436 1432 1431 1431 1432 1431 1431 1433 1433 1436 1444 1445 1441 1441 1439 1435 1433 1429 1425 1425 1425 1425 1424 1422 1422 1423 1423 1425 1424 1419 1418 1416 1403 1393 1392 1389 1384 1381 1372 1363 1360 1359 1359 1360 1359 1359 1360 1360 1360 1360 1358 1356
1461 1456 1453 1453 1451 1449 1447 1446 1445 1443 1443 1443 1441 1438 1439 1440 1441 1442 1439 1435 1434 1437 1438 1437 1436 1436 1436 1437 1437 1434 1434 1435 1435 1435 1434 1433 1432 1430 1429 1428 1427 1427 1429 1431 1430 1432 1436 1435 1432 1433 1430 1427 1428 1426 1423 1421 1417 1415 1417 1416 1415 1416 1419 1421 1418 1413 1413 1408 1397 1394 1394 1387 1380 1379 1373 1364 1359 1356 1357 1357 1354 1353 1354 1355 1357 1356 1353 1352
1458 1454 1451 1451 1449 1446 1444 1444 1443 1442 1442 1442 1438 1435 1434 1432 1431 1431 1432 1432 1430 1432 1434 1431 1429 1429 1428 1429 1430 1429 1429 1430 1427 1425 1424 1424 1424 1427 1427 1424 1421 1421 1423 1426 1427 1427 1428 1427 1425 1426 1425 1422 1423 1422 1420 1418 1415 1412 1412 1411 1411 1411 1411 1410 1407 1403 1402 1398 1392 1391 1390 1382 1377 1375 1368 1361 1358 1357 1356 1352 1348 1347 1347 1348 1351 1352 1349 1348
1457 1455 1453 1451 1449 1447 1445 1444 1444 1443 1442 1442 1439 1434 1432 1429 1426 1424 1425 1426 1425 1426 1427 1424 1421 1421 1422 1422 1423 1422 1420 1420 1416 1412 1412 1414 1417 1421 1420 1416 1414 1415 1418 1420 1422 1423 1422 1417 1415 1419 1420 1418 1416 1416 1415 1416 1415 1411 1408 1408 1409 1409 1403 1398 1396 1394 1394 1391 1385 1384 1386 1381 1371 1364 1360 1359 1359 1358 1355 1348 1342 1341 1341 1341 1343 1345 1345 1344
1456 1455 1455 1455 1451 1448 1445 1442 1443 1442 1441 1441 1438 1435 1433 1431 1429 1426 1423 1420 1420 1420 1420 1417 1416 1416 1416 1416 1415 1412 1410 1409 1405 1401 1402 1404 1407 1409 1408 1406 1405 1408 1413 1416 1416 1417 1419 1414 1411 1415 1415 1408 1407 1408 1406 1407 1409 1408 1408 1408 1406 1399 1390 1385 1382 1380 1381 1380 1377 1379 1381 1371 1356 1352 1355 1357 1356 1354 1350 1343 1336 1335 1336 1335 1335 1338 1340 1340
1454 1454 1455 1455 1452 1448 1444 1442 1442 1441 1437 1436 1434 1432 1431 1430 1429 1430 1426 1420 1417 1418 1418 1417 1417 1416 1413 1411 1409 1408 1408 1406 1402 1400 1399 1398 1397 1397 1398 1399 1399 1401 1406 1410 1410 1412 1414 1411 1410 1412 1407 1399 1398 1397 1397 1401 1403 1400 1399 1397 1388 1380 1378 1377 1375 1371 1369 1370 1371 1369 1362 1350 1345 1349 1354 1351 1348 1345 1340 1334 1330 1330 1330 1329 1329 1331 1333 1333